STARLINK-32732 (62488 NORAD) Tracking and Keplerian Element Data

This shows tracking and keplerian element data for the satellite.

Feedback or suggestion? Click here.




ElementValue
Catalog62488
NameSTARLINK-32732
Epoch Orbit543
Epoch Day34.37436783
Epoch Year2025
RAAN28.2374
Inclination43.002
Eccentricity0.0001636
Argument of Perigee279.9381
Mean Anonmoly80.1294
Mean Motion15.50573796
Decay Rate1.58E-06
L11 62488U 25003B 25034.37436783 .00000158 00000+0 85156-5 0 9996
L22 62488 43.0020 28.2374 0001636 279.9381 80.1294 15.50573796 5434



Live tracking and technical data element details for STARLINK-32732 (NORAD 62488). STARLINK-32732 can be tracked NOW for your location showing map with azimuth and elevation plus other details from your city location.







IsCatalogInMostPopularTable: catalog: 62488, numindb: 14
Update: records affected: 1



GetName: 62488 STARLINK-32732

Hit Count: updated at: Sun, 18 May 2025 21:55:17 GMT